sat.trackr.live / text

‹ back to catalog

STARLINK-36213

NORAD 67212 · 2025-304W

PAYLOAD ACTIVE UNKNOWN

§ Identity

Operator
Country
US
Launch date
2025-12-17
Launch site
AFWTR
Launch vehicle
Mass (kg)
RCS (m²)

Purposes: comms

External: N2YO · Heavens-Above · Gunter

§ Orbital elements

Epoch: 2026-05-24T23:21:34.085952Z

Period
96.11 min
Inclination
70.0023°
Eccentricity
0.0003077
Mean motion
14.98323013 rev/d
Perigee alt
569.9 km
Apogee alt
574.2 km
Semi-major
6,950.2 km
B*
-1.1538e-5
RAAN
342.0188°
Arg perigee
262.8886°
Mean anomaly
97.1923°
Rev number
2,531

§ Raw data

STARLINK-362131 67212U 25304W   26144.97331118 -.00000231  00000+0 -11538-4 0  99912 67212  70.0023 342.0188 0003077 262.8886  97.1923 14.98323013 25311

JSON: /api/v1/satellites/67212 · /tle

For live sub-satellite position, see the globe view (requires WebGL).

§ Visibility from observer

Set your observer location to see the next 7 days of passes ≥ 10°. The values pass through the URL so the page stays shareable.

No JS? Fill the form by hand. The geolocation button needs JavaScript.